Location: Arena
(42.5007°N, 9.4650°E)
Time: 23:29:32
(UTC+00:00)

Cosmos 1076 Rocket - Pass Details

Date: 09 April 2020
Orbit: 590 x 612 km, 82.5° (Epoch: 02 June)

Event Time Altitude Azimuth Distance (km) Brightness Sun altitude
Rises 19:39:50 0° 359° (N) 2,849 7.4 -18.4°
Reaches altitude 10° 19:42:09 10° 7° (N) 1,946 6.4 -18.7°
Maximum altitude 19:46:13 40° 77° (ENE) 891 4.0 -19.4°
Enters shadow 19:46:22 40° 83° (E) 894 4.0 -19.4°
